Location: Delmar
(42.6220°N, 73.8326°W)
Time: 05:02:50
(UTC+00:00)

Cosmos 2360 - Pass Details

Date: 29 October 2020
Orbit: 848 x 855 km, 70.8° (Epoch: 27 November)

Event Time Altitude Azimuth Distance (km) Brightness Sun altitude
Rises 22:56:55 0° 184° (S) 3,409 7.5 -12.6°
Reaches altitude 10° 22:59:27 10° 179° (S) 2,477 6.7 -13.0°
Maximum altitude 23:04:50 46° 107° (ESE) 1,139 4.5 -14.0°
Drops below altitude 10° 23:10:16 10° 36° (NE) 2,490 6.3 -15.0°
Enters shadow 23:10:47 - 35° (NE) 2,677 6.4 -15.1°
